Location: California Mobile Home Park
(33.7461°N, 117.9092°W)
Time: 05:27:06
(UTC+00:00)

ATLAS 3B R/B - Pass Details

Date: 29 June 2022
Orbit: 974 x 1221 km, 63.8° (Epoch: 09 August)

Event Time Altitude Azimuth Distance (km) Brightness Sun altitude
Rises 12:12:13 0° 176° (S) 3,668 5.2 -6.5°
Reaches altitude 10° 12:15:07 10° 165° (SSE) 2,742 4.7 -6.0°
Maximum altitude 12:20:24 28° 109° (ESE) 1,815 4.4 -5.1°
Drops below altitude 10° 12:25:55 10° 54° (NE) 2,866 6.9 -4.1°
Sets 12:28:59 0° 43° (NE) 3,865 7.5 -3.5°
